Tracking 18987 objects as of 24-Feb-2018
HD Live streaming from Space Station
objects crossing your sky now

NOAA 16 DEB

Track NOAA 16 DEB now!
10-day predictions


NORAD ID: 42360
Int'l Code: 2000-055RC
Perigee: 770.8 km
Apogee: 891.6 km
Inclination: 98.9 °
Period: 101.4 minutes
Semi major axis: 7202 km
RCS: Unknown
Launch date: September 21, 2000
Source: United States (US)
Launch site: AIR FORCE WESTERN TEST RANGE (AFWTR)

Note: This is SATELLITE DEBRIS
aabbcc
Your satellite tracking list
Your tracking list is empty




NASA's NSSDC Master Catalog

Two Line Element Set (TLE):
1 42360U 00055RC  18055.02820451 +.00001146 +00000-0 +53681-3 0  9994
2 42360 098.8860 139.8040 0083894 341.9722 017.8484 14.20389697107673
Source of the keplerian elements: AFSPC